Flag for South Korea Weather past 2 weeks in Incheon, South Korea

Now
73 °F

Light rain. Mostly cloudy.


Feels Like: 72 °F
Forecast: 72 / 77 °F
Wind: 2 mph from East

Location: Incheon International Airport

Current Time: Aug 21, 2014 at 4:22:39 AM

Latest Report: Aug 21, 2014 at 4:00 AM


Visibility: 4 mi

Pressure: 29.77 "Hg

Humidity: 89%

Dew point: 70 °F

Location of IncheonLocation

Historic Weather in Incheon — Graph

°F

Incheon temperature yesterday

Maximum temperature yesterday: 81 °F (at 2:30 PM)
Minimum temperature yesterday: 70 °F (at 1:30 AM)
Average temperature yesterday: 75 °F

Past Weeks' High & Low Weather Summary

 TemperatureHumidityPressure
High90 °F (Aug 9, 4:00 PM)100% (Aug 13, 1:00 PM)29.95 "Hg (Aug 13, 1:00 PM)
Low64 °F (Aug 11, 5:00 AM)29% (Aug 9, 4:00 PM)29.45 "Hg (Aug 10, 6:00 PM)
Average75 °F75%29.75 "Hg
* Reported Aug 6 3:00 AM — Aug 21 3:30 AM, Incheon, Weather by CustomWeather, © 2014

Note: Actual official high and low records may vary slightly from our data, if they occured in-between our weather recording intervals... More about our weather records

Advertising

Incheon weather history for previous 24 hours

 ConditionsComfort  
Time TempWeatherWind HumidityBarometerVisibility
3:30 AM
Aug 21
73 °FLight rain. Mostly cloudy.3 mph89%29.77 "Hg5 mi
3:00 AM73 °FLight rain. Mostly cloudy.1 mph89%29.77 "Hg5 mi
2:30 AM73 °FLight rain. Mostly cloudy.2 mph89%29.77 "Hg5 mi
2:00 AM73 °FMostly cloudy.1 mph89%29.80 "Hg5 mi
1:30 AM73 °FLight rain. Mostly cloudy.3 mph89%29.80 "Hg4 mi
1:00 AM73 °FMostly cloudy.1 mph83%29.80 "HgN/A
12:30 AM73 °FMostly cloudy.1 mph89%29.83 "HgN/A
12:00 AM75 °FMostly cloudy.3 mph78%29.83 "HgN/A
11:30 PM
Aug 20
75 °FMostly cloudy.5 mph78%29.83 "HgN/A
11:00 PM75 °FMostly cloudy.3 mph78%29.83 "HgN/A
10:30 PM75 °FMostly cloudy.5 mph78%29.83 "HgN/A
10:00 PM75 °FMostly cloudy.5 mph78%29.83 "HgN/A
9:30 PM75 °FMostly cloudy.5 mph78%29.83 "HgN/A
9:00 PM75 °FPartly cloudy.3 mph78%29.83 "HgN/A
8:30 PM75 °FPartly cloudy.5 mph78%29.83 "HgN/A
8:00 PM75 °FBroken clouds.5 mph78%29.83 "HgN/A
7:30 PM75 °FBroken clouds.7 mph78%29.80 "HgN/A
7:00 PM77 °FBroken clouds.7 mph69%29.80 "HgN/A
6:30 PM77 °FBroken clouds.6 mph69%29.80 "HgN/A
6:00 PM79 °FBroken clouds.7 mph70%29.80 "HgN/A
5:30 PM79 °FBroken clouds.5 mph65%29.80 "HgN/A
5:00 PM79 °FBroken clouds.3 mph65%29.80 "HgN/A
4:30 PM79 °FBroken clouds.3 mph65%29.80 "HgN/A
4:00 PM79 °FBroken clouds.7 mph65%29.80 "HgN/A
3:30 PM79 °FBroken clouds.6 mph70%29.83 "HgN/A
3:00 PM81 °FBroken clouds.7 mph66%29.83 "HgN/A
2:30 PM81 °FBroken clouds.7 mph66%29.83 "HgN/A
2:00 PM79 °FBroken clouds.6 mph70%29.83 "HgN/A
1:30 PM79 °FBroken clouds.7 mph70%29.86 "HgN/A
1:00 PM79 °FBroken clouds.6 mph65%29.86 "HgN/A
12:30 PM79 °FBroken clouds.2 mph70%29.86 "HgN/A
11:30 AM79 °FBroken clouds.6 mph65%29.89 "HgN/A
11:00 AM77 °FBroken clouds.3 mph69%29.89 "HgN/A
10:30 AM75 °FBroken clouds.1 mph74%29.89 "HgN/A
10:00 AM75 °FBroken clouds.3 mph74%29.89 "HgN/A
9:30 AM75 °FBroken clouds.3 mph78%29.89 "HgN/A
9:00 AM73 °FBroken clouds.3 mph83%29.89 "HgN/A
8:30 AM73 °FBroken clouds.5 mph83%29.89 "Hg6 mi
8:00 AM72 °FBroken clouds.3 mph88%29.89 "Hg5 mi
7:30 AM72 °FBroken clouds.3 mph88%29.89 "Hg5 mi
7:00 AM70 °FBroken clouds.3 mph94%29.86 "Hg4 mi
6:30 AM70 °FPartly cloudy.3 mph94%29.86 "Hg4 mi
5:30 AM70 °FPartly cloudy.3 mph94%29.86 "HgN/A
5:00 AM70 °FPartly cloudy.1 mph88%29.86 "HgN/A
4:30 AM70 °FPartly cloudy.2 mph88%29.86 "HgN/A
4:00 AM70 °FPartly cloudy.2 mph88%29.86 "HgN/A
Weather by CustomWeather, © 2014

See weather overviewHow to use our weather pages